TimeEST,TemperatureF,Dew PointF,Humidity,Sea Level PressureIn,VisibilityMPH,Wind Direction,Wind SpeedMPH,Gust SpeedMPH,PrecipitationIn,Events,Conditions,WindDirDegrees,DateUTC
12:54 AM,28.0,21.0,75,30.36,10.0,Calm,Calm,-,N/A,,Clear,0,2012-11-29 05:54:00
1:54 AM,30.0,21.9,72,30.35,10.0,Calm,Calm,-,N/A,,Clear,0,2012-11-29 06:54:00
2:54 AM,26.1,21.0,81,30.35,10.0,Calm,Calm,-,N/A,,Clear,0,2012-11-29 07:54:00
3:54 AM,25.0,19.9,81,30.35,10.0,Calm,Calm,-,N/A,,Clear,0,2012-11-29 08:54:00
4:54 AM,28.0,21.9,78,30.35,10.0,Calm,Calm,-,N/A,,Clear,0,2012-11-29 09:54:00
5:54 AM,28.9,21.9,75,30.34,10.0,SSE,3.5,-,N/A,,Clear,160,2012-11-29 10:54:00
6:54 AM,28.0,21.0,75,30.33,10.0,Calm,Calm,-,N/A,,Clear,0,2012-11-29 11:54:00
7:54 AM,28.9,21.9,75,30.34,10.0,SSW,4.6,-,N/A,,Clear,210,2012-11-29 12:54:00
8:54 AM,30.9,23.0,72,30.34,9.0,SSW,3.5,-,N/A,,Clear,210,2012-11-29 13:54:00
9:54 AM,36.0,27.0,70,30.33,10.0,SSW,5.8,-,N/A,,Clear,200,2012-11-29 14:54:00
11:54 AM,44.1,28.9,55,30.28,10.0,SSW,11.5,-,N/A,,Clear,200,2012-11-29 16:54:00
12:54 PM,46.0,28.9,51,30.25,10.0,SW,16.1,23.0,N/A,,Clear,220,2012-11-29 17:54:00
1:54 PM,48.0,28.9,48,30.22,10.0,SSW,11.5,19.6,N/A,,Clear,200,2012-11-29 18:54:00
2:54 PM,48.0,30.0,50,30.20,10.0,SSW,12.7,-,N/A,,Clear,200,2012-11-29 19:54:00
3:54 PM,48.0,30.0,50,30.20,10.0,SSW,6.9,16.1,N/A,,Clear,200,2012-11-29 20:54:00
4:54 PM,46.0,30.0,54,30.18,10.0,South,5.8,-,N/A,,Clear,180,2012-11-29 21:54:00
5:54 PM,44.1,30.0,58,30.17,10.0,South,5.8,-,N/A,,Clear,180,2012-11-29 22:54:00
6:54 PM,43.0,30.0,60,30.18,10.0,South,5.8,-,N/A,,Clear,170,2012-11-29 23:54:00
7:54 PM,42.1,30.0,62,30.17,10.0,SSE,5.8,-,N/A,,Clear,160,2012-11-30 00:54:00
8:54 PM,41.0,28.9,62,30.15,10.0,SSE,4.6,-,N/A,,Scattered Clouds,160,2012-11-30 01:54:00
9:54 PM,37.9,28.0,68,30.17,10.0,East,3.5,-,N/A,,Partly Cloudy,80,2012-11-30 02:54:00
10:54 PM,39.0,28.9,67,30.17,10.0,SSE,3.5,-,N/A,,Partly Cloudy,150,2012-11-30 03:54:00
11:54 PM,37.0,28.9,73,30.16,10.0,SE,3.5,-,N/A,,Clear,140,2012-11-30 04:54:00